Hulianwang W. Digui 06-04

operational
NORAD ID: 65046 Int'l Des: 2025-162 Owner: ZXW Country: CN Constellation: xingwang
LEOCIRCULAR

About Hulianwang W. Digui 06-04

Description loading...

Live Position

Loading 3D Globe...

Upcoming Passes

Altitude History

Altitude vs Time

uPlot chart will show altitude changes over time

Two-Line Element Set

1 65046U 25162D 25315.04603715 -.00000071 00000-0 11485-3 0 9990
2 65046 49.9998 328.1618 0000184 248.1526 111.9327 13.29651353 14345
Epoch: Nov 11, 2025 • Age: 14 hours

Current Status

Altitude 1149.6 km
Velocity 7.28 km/s
Sub-Earth Point -6.74°S, 119.36°W
Launch Date Jul 30, 2025
Age 0.2 years
Type other

Technical Details

Classification Payload
Mass 800.00 kg
Dry Mass 800.00 kg
Total Mass 800.00 kg
Length 3.00 m
Diameter 1.00 m
Span 10.00 m
Shape Box + 2 Pan
Manufacturer SECM
Bus Type Guowang S
Phase Status In Orbit
Owner/State ZXW/CN

Large Constellations

Loading constellations...